Language: 


Des rapports , des résumés tant et plus, au choix de chacun....


Données statistiques de la station
Quotidien Rapport Janvier 18, 2018 Unités:  Métrique    Anglais   les deux
« Précédent Jour
Suivant Jour »
Quotidien Hebdomadaire Mensuel Annuel Actuel
  Haut: Bas: Moyen:
Température: -17.8 °C -17.8 °C -13.4 °C
Pt de rosée: -17.8 °C -17.2 °C -15.2 °C
Humidité: Humidity % 0 % 79 %
Vitesse du vent: 0 km/h 0 km/h 32.7 km/h
Rafales: 0 km/h - -
Vent:- - WSW
Pression: 0 hPa 0 hPa -
Précipitation: 0 mm    
Historical Graphs
 
 
Données statistiques pour Janvier 18, 2018
Heure Température Point de rosée Pression Vent Vitesse du vent Refales Humidité Pluie (taux horaire)
-17.8 °C -17.8 °C 0 hPa Calm     Humidity % 0 mm
00:04 -14.3 °C -16.1 °C 34097 hPa WSW 22 km/h 37 km/h 81 % 0 mm
00:09 -14.3 °C -16.1 °C 34097 hPa SSW 28.5 km/h 28.5 km/h 81 % 0 mm
00:14 -14.3 °C -16.1 °C 34097 hPa SSW 27.7 km/h 28.5 km/h 81 % 0 mm
00:19 -14.3 °C -15.6 °C 34097 hPa SW 25.4 km/h 30.7 km/h 82 % 0 mm
00:24 -14.3 °C -15.6 °C 34097 hPa WSW 26.2 km/h 39.9 km/h 82 % 0 mm
00:29 -14.3 °C -15.6 °C 34063.2 hPa WSW 22.5 km/h 39.9 km/h 82 % 0 mm
00:34 -14.3 °C -15.6 °C 34063.2 hPa WSW 22.5 km/h 39.9 km/h 82 % 0 mm
00:39 -14.3 °C -15.6 °C 34063.2 hPa SW 25.4 km/h 27.7 km/h 82 % 0 mm
00:44 -14.3 °C -15.6 °C 34029.3 hPa SSW 19.6 km/h 27.7 km/h 82 % 0 mm
00:49 -14.3 °C -15.6 °C 34029.3 hPa SSW 22 km/h 26.7 km/h 82 % 7.62 mm
00:54 -14.3 °C -15.6 °C 34029.3 hPa SSW 16.9 km/h 26.2 km/h 82 % 7.62 mm
00:59 -14.3 °C -15.6 °C 33992.1 hPa WSW 18.7 km/h 26.7 km/h 82 % 7.62 mm
01:04 -14.3 °C -15.6 °C 33992.1 hPa SSW 18.7 km/h 26.7 km/h 82 % 12.7 mm
01:09 -14.3 °C -15.6 °C 33992.1 hPa SSW 15 km/h 26.2 km/h 82 % 12.7 mm
01:14 -14.3 °C -15.6 °C 34029.3 hPa SSW 19.6 km/h 26.7 km/h 82 % 12.7 mm
01:19 -14.3 °C -15.6 °C 34029.3 hPa SSW 10.3 km/h 28.5 km/h 82 % 12.7 mm
01:24 -14.3 °C -15.6 °C 34029.3 hPa SW 22 km/h 30.7 km/h 82 % 12.7 mm
01:29 -14.3 °C -15.6 °C 33958.2 hPa SW 15.6 km/h 30.7 km/h 82 % 12.7 mm
01:35 -14.3 °C -15.6 °C 33958.2 hPa SSW 26.2 km/h 31.4 km/h 82 % 12.7 mm
01:40 -14.3 °C -15.6 °C 33958.2 hPa SW 27.7 km/h 37.5 km/h 82 % 12.7 mm
01:45 -14.7 °C -14.4 °C 33958.2 hPa South 31.4 km/h 44.6 km/h 98 % 7.62 mm
01:50 -14.7 °C -14.4 °C 33958.2 hPa SSW 25.4 km/h 44.6 km/h 98 % 12.7 mm
01:55 -14.7 °C -14.4 °C 33958.2 hPa SSW 31.4 km/h 42.2 km/h 98 % 12.7 mm
02:00 -14.6 °C -14.4 °C 33924.3 hPa SW 38.3 km/h 49.2 km/h 98 % 12.7 mm
02:05 -14.6 °C -14.4 °C 33924.3 hPa SSW 34.1 km/h 49.2 km/h 98 % 12.7 mm
02:10 -14.6 °C -14.4 °C 33924.3 hPa SSW 31.4 km/h 53.9 km/h 98 % 20.32 mm
02:15 -14.6 °C -14.4 °C 33856.6 hPa SSW 40.7 km/h 53.9 km/h 98 % 33.02 mm
02:20 -14.6 °C -14.4 °C 33856.6 hPa SSW 39.4 km/h 45.9 km/h 98 % 33.02 mm
02:25 -14.6 °C -14.4 °C 33856.6 hPa WSW 33.2 km/h 50.5 km/h 98 % 38.1 mm
02:30 -14.6 °C -14.4 °C 33890.5 hPa SSW 28.5 km/h 50.5 km/h 98 % 45.72 mm
02:35 -14.6 °C -14.4 °C 33890.5 hPa WSW 27.7 km/h 51 km/h 98 % 58.42 mm
02:40 -14.6 °C -14.4 °C 33890.5 hPa SSW 43 km/h 52 km/h 98 % 58.42 mm
02:45 -14.6 °C -14.4 °C 33822.8 hPa SW 27.7 km/h 52 km/h 98 % 58.42 mm
02:50 -14.6 °C -14.4 °C 33822.8 hPa SW 40.7 km/h 44.6 km/h 98 % 58.42 mm
02:55 -14.6 °C -14.4 °C 33822.8 hPa SSW 27.7 km/h 44.6 km/h 98 % 58.42 mm
03:00 -14.6 °C -14.4 °C 33822.8 hPa SSW 39.4 km/h 44.6 km/h 98 % 45.72 mm
03:05 -14.6 °C -14.4 °C 33822.8 hPa SSW 46.3 km/h 50.5 km/h 98 % 45.72 mm
03:10 -14.6 °C -14.4 °C 33822.8 hPa WSW 28.5 km/h 50.5 km/h 98 % 38.1 mm
03:15 -14.5 °C -14.4 °C 33788.9 hPa SSW 20.3 km/h 43 km/h 98 % 33.02 mm
03:20 -14.6 °C -14.4 °C 33788.9 hPa SW 33.6 km/h 39.4 km/h 98 % 20.32 mm
03:25 -14.4 °C -14.4 °C 33788.9 hPa SW 37.5 km/h 45.9 km/h 98 % 12.7 mm
03:30 -14.4 °C -14.4 °C 33751.6 hPa SSW 34.8 km/h 46.3 km/h 98 % 12.7 mm
03:35 -14.4 °C -14.4 °C 33751.6 hPa WSW 31.9 km/h 46.3 km/h 98 % 7.62 mm
03:40 -14.4 °C -14.4 °C 33751.6 hPa South 20.3 km/h 45.9 km/h 98 % 7.62 mm
03:45 -14.3 °C -14.4 °C 33751.6 hPa SW 26.2 km/h 50.5 km/h 98 % 7.62 mm
03:50 -14.3 °C -14.4 °C 33751.6 hPa SW 45.1 km/h 50.5 km/h 98 % 0 mm
03:55 -14.2 °C -13.9 °C 33751.6 hPa SW 32.3 km/h 51.5 km/h 98 % 0 mm
04:00 -14.2 °C -13.9 °C 33751.6 hPa SW 34.1 km/h 51.5 km/h 98 % 0 mm
04:05 -14.1 °C -13.9 °C 33751.6 hPa SSW 34.1 km/h 59.5 km/h 98 % 0 mm
04:10 -14 °C -13.9 °C 33751.6 hPa WSW 33.6 km/h 59.5 km/h 98 % 0 mm
04:15 -13.9 °C -13.9 °C 33731.3 hPa WSW 45.9 km/h 48.6 km/h 98 % 0 mm
04:21 -13.8 °C -13.9 °C 33731.3 hPa WSW 39.4 km/h 51.5 km/h 98 % 0 mm
04:26 -13.8 °C -13.9 °C 33731.3 hPa WSW 32.3 km/h 51.5 km/h 98 % 0 mm
04:31 -13.7 °C -13.9 °C 33731.3 hPa WSW 39.4 km/h 60.8 km/h 98 % 0 mm
04:36 -13.6 °C -13.3 °C 33731.3 hPa WSW 41.2 km/h 60.8 km/h 98 % 0 mm
04:41 -13.4 °C -13.3 °C 33694.1 hPa SW 45.1 km/h 61.3 km/h 98 % 7.62 mm
04:46 -13.3 °C -13.3 °C 33694.1 hPa WSW 58.6 km/h 70.2 km/h 98 % 7.62 mm
04:51 -13.2 °C -13.3 °C 33694.1 hPa WSW 39.9 km/h 70.2 km/h 98 % 7.62 mm
04:56 -13.1 °C -12.8 °C 33660.2 hPa WSW 57.9 km/h 70.6 km/h 98 % 7.62 mm
05:01 -13 °C -12.8 °C 33660.2 hPa WSW 60.3 km/h 71.1 km/h 98 % 7.62 mm
05:06 -12.9 °C -12.8 °C 33660.2 hPa West 49.7 km/h 80.5 km/h 98 % 7.62 mm
05:11 -12.8 °C -12.8 °C 33660.2 hPa West 80.5 km/h 84.6 km/h 98 % 7.62 mm
05:16 -12.8 °C -12.8 °C 33660.2 hPa WSW 81.1 km/h 84.6 km/h 98 % 7.62 mm
05:21 -12.8 °C -12.8 °C 33660.2 hPa WSW 78.2 km/h 104.3 km/h 98 % 7.62 mm
05:26 -12.6 °C -12.8 °C 33626.4 hPa WSW 66.6 km/h 104.3 km/h 98 % 7.62 mm
05:31 -12.6 °C -12.8 °C 33626.4 hPa WSW 80.5 km/h 88.5 km/h 98 % 7.62 mm
05:36 -12.4 °C -12.2 °C 33626.4 hPa WSW 67.9 km/h 116.5 km/h 98 % 0 mm
05:41 -12.4 °C -12.2 °C 33626.4 hPa WSW 95.6 km/h 116.5 km/h 98 % 0 mm
05:46 -12.4 °C -12.2 °C 33626.4 hPa WSW 66 km/h 96.1 km/h 98 % 0 mm
05:51 -12.4 °C -12.2 °C 33626.4 hPa WSW 58.6 km/h 103 km/h 98 % 0 mm
05:56 -12.4 °C -12.2 °C 33626.4 hPa WSW 71.8 km/h 103 km/h 98 % 0 mm
06:01 -12.4 °C -12.2 °C 33626.4 hPa WSW 65 km/h 85.8 km/h 98 % 0 mm
06:06 -12.4 °C -12.2 °C 33626.4 hPa WSW 84.6 km/h 84.6 km/h 98 % 0 mm
06:11 -12.4 °C -12.2 °C 33592.5 hPa West 83.4 km/h 92.7 km/h 98 % 0 mm
06:16 -12.4 °C -12.2 °C 33592.5 hPa WSW 59.1 km/h 97.4 km/h 98 % 0 mm
06:21 -12.4 °C -12.2 °C 33592.5 hPa West 77.1 km/h 97.4 km/h 98 % 0 mm
06:26 -12.4 °C -12.2 °C 33626.4 hPa West 69.4 km/h 88 km/h 98 % 0 mm
06:32 -12.4 °C -12.2 °C 33626.4 hPa West 79.2 km/h 90.9 km/h 98 % 0 mm
06:37 -12.4 °C -12.2 °C 33626.4 hPa West 96.1 km/h 96.1 km/h 98 % 0 mm
06:42 -11.6 °C -12.2 °C 33592.5 hPa WSW 78.7 km/h 96.1 km/h 91 % 0 mm
06:47 -11.6 °C -12.2 °C 33592.5 hPa WSW 84.6 km/h 106.7 km/h 91 % 0 mm
06:52 -11.6 °C -12.2 °C 33592.5 hPa WSW 86.3 km/h 106.7 km/h 91 % 0 mm
06:57 -11.6 °C -12.8 °C 33592.5 hPa WSW 63.2 km/h 103.6 km/h 90 % 0 mm
07:02 -11.6 °C -12.2 °C 33592.5 hPa WSW 83.4 km/h 103 km/h 90 % 0 mm
07:07 -11.5 °C -12.8 °C 33592.5 hPa West 89 km/h 103 km/h 88 % 0 mm
07:12 -11.4 °C -12.8 °C 33592.5 hPa WSW 86.3 km/h 107.7 km/h 86 % 0 mm
07:17 -11.4 °C -12.8 °C 33592.5 hPa West 78.2 km/h 107.7 km/h 85 % 0 mm
07:22 -11.3 °C -12.8 °C 33592.5 hPa WNW 63.2 km/h 100.7 km/h 82 % 0 mm
07:27 -11.3 °C -13.3 °C 33626.4 hPa WSW 67.9 km/h 147.1 km/h 79 % 0 mm
07:32 -11.2 °C -13.3 °C 33626.4 hPa WSW 105.9 km/h 147.1 km/h 76 % 0 mm
07:37 -11.2 °C -13.3 °C 33626.4 hPa WSW 80.5 km/h 133.9 km/h 77 % 0 mm
07:42 -11.2 °C -13.3 °C 33626.4 hPa West 85.1 km/h 125 km/h 76 % 0 mm
07:47 -11.2 °C -13.3 °C 33626.4 hPa West 100.3 km/h 125 km/h 76 % 0 mm
07:52 -11.3 °C -13.9 °C 33626.4 hPa West 107.7 km/h 129.2 km/h 74 % 0 mm
07:57 -11.3 °C -13.9 °C 33626.4 hPa West 71.1 km/h 129.2 km/h 73 % 0 mm
08:02 -11.3 °C -13.9 °C 33626.4 hPa West 92.7 km/h 134.9 km/h 73 % 0 mm
08:07 -11.4 °C -13.9 °C 33626.4 hPa SW 70.6 km/h 134.9 km/h 72 % 0 mm
08:12 -11.4 °C -13.9 °C 33660.2 hPa West 90.9 km/h 126.8 km/h 72 % 0 mm
08:17 -11.4 °C -13.9 °C 33660.2 hPa West 86.3 km/h 126.8 km/h 72 % 0 mm
08:22 -11.6 °C -13.9 °C 33660.2 hPa West 92.2 km/h 118.9 km/h 72 % 0 mm
08:27 -11.6 °C -14.4 °C 33660.2 hPa West 92.2 km/h 92.7 km/h 70 % 0 mm
08:32 -11.7 °C -14.4 °C 33660.2 hPa West 74 km/h 103.6 km/h 70 % 0 mm
08:37 -11.7 °C -14.4 °C 33660.2 hPa West 66 km/h 103.6 km/h 71 % 0 mm
08:42 -11.8 °C -14.4 °C 33694.1 hPa West 45.1 km/h 102 km/h 72 % 0 mm
08:47 -11.8 °C -14.4 °C 33694.1 hPa SW 68.4 km/h 88.5 km/h 70 % 0 mm
08:52 -11.9 °C -14.4 °C 33694.1 hPa West 73.5 km/h 85.1 km/h 70 % 0 mm
08:57 -11.9 °C -15 °C 33731.3 hPa West 57.3 km/h 83.4 km/h 69 % 0 mm
09:02 -12.1 °C -15 °C 33731.3 hPa WSW 34.1 km/h 83.4 km/h 68 % 0 mm
09:07 -12.1 °C -15 °C 33731.3 hPa West 88.5 km/h 88.5 km/h 67 % 0 mm
09:12 -12.2 °C -15.6 °C 33751.6 hPa SW 56.6 km/h 90.9 km/h 64 % 0 mm
09:18 -12.3 °C -16.1 °C 33751.6 hPa West 37.5 km/h 90.9 km/h 63 % 0 mm
09:23 -12.3 °C -16.1 °C 33751.6 hPa West 54.4 km/h 83.8 km/h 62 % 0 mm
09:28 -12.3 °C -16.1 °C 33751.6 hPa West 39.4 km/h 92.7 km/h 61 % 0 mm
09:33 -12.3 °C -16.1 °C 33751.6 hPa WNW 62.6 km/h 92.7 km/h 62 % 0 mm
09:38 -12.4 °C -16.1 °C 33751.6 hPa West 45.9 km/h 78.2 km/h 63 % 0 mm
09:43 -12.4 °C -16.1 °C 33751.6 hPa West 59.5 km/h 78.2 km/h 62 % 0 mm
09:48 -12.4 °C -16.1 °C 33751.6 hPa WNW 60.8 km/h 85.1 km/h 62 % 0 mm
09:53 -12.4 °C -16.1 °C 33751.6 hPa WSW 60.3 km/h 85.1 km/h 63 % 0 mm
09:58 -12.5 °C -16.1 °C 33788.9 hPa South 40.7 km/h 67.9 km/h 64 % 0 mm
10:03 -12.4 °C -16.1 °C 33788.9 hPa West 66.6 km/h 78.2 km/h 63 % 0 mm
10:08 -12.4 °C -16.1 °C 33788.9 hPa West 34.8 km/h 78.2 km/h 64 % 0 mm
10:13 -12.4 °C -15.6 °C 33822.8 hPa West 55.2 km/h 75.8 km/h 65 % 0 mm
10:18 -12.4 °C -16.1 °C 33822.8 hPa WSW 39.4 km/h 67.9 km/h 64 % 0 mm
10:23 -12.4 °C -16.1 °C 33822.8 hPa WSW 48.1 km/h 65 km/h 64 % 0 mm
10:28 -12.4 °C -15.6 °C 33822.8 hPa West 28.5 km/h 65.5 km/h 65 % 0 mm
10:33 -12.4 °C -15.6 °C 33822.8 hPa NNE 43.5 km/h 65.5 km/h 66 % 0 mm
10:38 -12.3 °C -15.6 °C 33822.8 hPa NW 22.5 km/h 57.9 km/h 65 % 0 mm
10:43 -12.3 °C -16.1 °C 33856.6 hPa SSW 25.4 km/h 43.5 km/h 64 % 0 mm
10:48 -12.3 °C -16.1 °C 33856.6 hPa West 28.5 km/h 52 km/h 63 % 0 mm
10:53 -12.3 °C -16.1 °C 33856.6 hPa WNW 37.5 km/h 52 km/h 62 % 0 mm
10:58 -12.3 °C -16.1 °C 33856.6 hPa WSW 27.7 km/h 62 km/h 61 % 0 mm
11:03 -12.3 °C -16.1 °C 33856.6 hPa WSW 33.6 km/h 62 km/h 59 % 0 mm
11:08 -12.4 °C -16.1 °C 33856.6 hPa WNW 31.9 km/h 41.2 km/h 61 % 0 mm
11:13 -12.4 °C -16.1 °C 33890.5 hPa WNW 27.2 km/h 41.2 km/h 61 % 0 mm
11:18 -12.4 °C -16.1 °C 33890.5 hPa WSW 25.4 km/h 39.9 km/h 61 % 0 mm
11:23 -12.4 °C -16.1 °C 33890.5 hPa WNW 23.8 km/h 41.7 km/h 60 % 0 mm
11:28 -12.4 °C -16.7 °C 33890.5 hPa West 14.5 km/h 53.9 km/h 59 % 0 mm
11:33 -12.4 °C -16.7 °C 33890.5 hPa North 28.5 km/h 53.9 km/h 58 % 0 mm
11:38 -12.5 °C -16.7 °C 33890.5 hPa West 10.3 km/h 52 km/h 59 % 0 mm
11:43 -12.5 °C -16.7 °C 33890.5 hPa WSW 26.7 km/h 48.1 km/h 58 % 0 mm
11:49 -12.6 °C -16.7 °C 33890.5 hPa WSW 20.3 km/h 59.5 km/h 58 % 0 mm
11:54 -12.6 °C -17.2 °C 33890.5 hPa WNW 33.6 km/h 59.5 km/h 57 % 0 mm
11:59 -12.6 °C -16.7 °C 33890.5 hPa West 26.2 km/h 57.9 km/h 58 % 0 mm
12:04 -12.6 °C -16.7 °C 33890.5 hPa West 24.8 km/h 57.9 km/h 59 % 0 mm
12:09 -12.6 °C -16.7 °C 33890.5 hPa West 22 km/h 45.1 km/h 59 % 0 mm
12:14 -12.6 °C -16.7 °C 33924.3 hPa West 8 km/h 43.5 km/h 60 % 0 mm
12:19 -12.6 °C -16.7 °C 33924.3 hPa West 14 km/h 45.9 km/h 60 % 0 mm
12:24 -12.7 °C -16.7 °C 33924.3 hPa WNW 31.9 km/h 45.9 km/h 60 % 0 mm
12:29 -12.7 °C -16.7 °C 33924.3 hPa North 34.1 km/h 37 km/h 61 % 0 mm
12:34 -12.6 °C -16.7 °C 33924.3 hPa West 17.4 km/h 39.9 km/h 61 % 0 mm
12:39 -12.6 °C -16.7 °C 33924.3 hPa South 14.5 km/h 51.5 km/h 61 % 0 mm
12:44 -12.6 °C -16.7 °C 33924.3 hPa WNW 28.5 km/h 51.5 km/h 59 % 0 mm
12:49 -12.5 °C -16.7 °C 33924.3 hPa WSW 22 km/h 59.1 km/h 59 % 0 mm
12:54 -12.3 °C -16.1 °C 33924.3 hPa WNW 15 km/h 59.1 km/h 60 % 0 mm
12:59 -12.3 °C -16.7 °C 33924.3 hPa WSW 27.7 km/h 45.1 km/h 58 % 0 mm
13:04 -12.3 °C -16.7 °C 33924.3 hPa West 19.2 km/h 45.9 km/h 57 % 0 mm
13:09 -12.5 °C -16.7 °C 33924.3 hPa North 34.1 km/h 45.9 km/h 58 % 0 mm
13:14 -12.4 °C -16.1 °C 33924.3 hPa WNW 19.2 km/h 43 km/h 60 % 0 mm
13:19 -12.3 °C -16.1 °C 33924.3 hPa WNW 24.3 km/h 39.4 km/h 61 % 0 mm
13:24 -12.4 °C -16.7 °C 33924.3 hPa WNW 10.3 km/h 39.4 km/h 58 % 0 mm
13:29 -12.4 °C -16.1 °C 33924.3 hPa WNW 36 km/h 39.4 km/h 60 % 0 mm
13:34 -12.4 °C -16.1 °C 33924.3 hPa WNW 26.2 km/h 39.9 km/h 60 % 0 mm
13:39 -12.3 °C -16.7 °C 33924.3 hPa NNW 20.3 km/h 40.7 km/h 59 % 0 mm
13:44 -12.2 °C -16.1 °C 33924.3 hPa WNW 25.4 km/h 40.7 km/h 60 % 0 mm
13:49 -12.1 °C -16.1 °C 33924.3 hPa WSW 27.7 km/h 37 km/h 59 % 0 mm
13:54 -11.9 °C -16.1 °C 33924.3 hPa NW 19.2 km/h 37 km/h 61 % 0 mm
13:59 -12 °C -16.1 °C 33924.3 hPa West 27.2 km/h 44.6 km/h 59 % 0 mm
14:05 -11.9 °C -16.1 °C 33924.3 hPa West 16.3 km/h 44.6 km/h 59 % 0 mm
14:10 -12 °C -16.1 °C 33924.3 hPa West 45.9 km/h 55.7 km/h 58 % 0 mm
14:15 -12.1 °C -16.1 °C 33924.3 hPa West 45.1 km/h 55.7 km/h 59 % 0 mm
14:20 -12.2 °C -16.7 °C 33924.3 hPa West 27.7 km/h 58.6 km/h 58 % 0 mm
14:25 -12.3 °C -16.1 °C 33924.3 hPa West 22.5 km/h 58.6 km/h 59 % 0 mm
14:30 -12.3 °C -16.1 °C 33924.3 hPa NNW 33.2 km/h 44.6 km/h 59 % 0 mm
14:35 -12.3 °C -16.1 °C 33924.3 hPa West 22.5 km/h 39.9 km/h 59 % 0 mm
14:40 -12.3 °C -16.1 °C 33924.3 hPa West 15 km/h 39.9 km/h 59 % 0 mm
14:45 -12.3 °C -16.1 °C 33924.3 hPa WSW 27.7 km/h 33.2 km/h 59 % 0 mm
14:50 -12.3 °C -16.1 °C 33924.3 hPa West 20.3 km/h 39.4 km/h 59 % 0 mm
14:55 -12.3 °C -16.1 °C 33924.3 hPa WSW 36 km/h 39.4 km/h 59 % 0 mm
15:00 -12.3 °C -16.1 °C 33924.3 hPa WSW 20.3 km/h 45.9 km/h 59 % 0 mm
15:05 -12.3 °C -16.1 °C 33924.3 hPa West 19.2 km/h 45.9 km/h 59 % 0 mm
15:10 -12.3 °C -16.1 °C 33924.3 hPa West 15 km/h 33.6 km/h 59 % 0 mm
15:15 -12.8 °C -16.1 °C 33924.3 hPa West 15.6 km/h 33.6 km/h 64 % 0 mm
15:20 -12.8 °C -16.1 °C 33924.3 hPa West 14 km/h 26.7 km/h 64 % 0 mm
15:25 -12.8 °C -16.1 °C 33924.3 hPa WSW 19.2 km/h 30.7 km/h 64 % 0 mm
15:30 -12.8 °C -16.1 °C 33924.3 hPa West 39.4 km/h 41.2 km/h 67 % 0 mm
15:36 -12.8 °C -16.1 °C 33924.3 hPa West 22.5 km/h 41.2 km/h 67 % 0 mm
15:41 -12.9 °C -16.1 °C 33924.3 hPa WSW 31.4 km/h 39.4 km/h 67 % 0 mm
15:46 -12.9 °C -16.1 °C 33924.3 hPa West 22.5 km/h 39.9 km/h 67 % 0 mm
15:51 -12.9 °C -16.1 °C 33924.3 hPa WNW 15 km/h 39.9 km/h 67 % 0 mm
15:56 -13.1 °C -16.1 °C 33924.3 hPa WSW 33.6 km/h 33.6 km/h 68 % 0 mm
16:01 -13.1 °C -16.1 °C 33924.3 hPa West 9.3 km/h 33.6 km/h 68 % 0 mm
16:06 -13.1 °C -16.1 °C 33924.3 hPa West 22.5 km/h 30.7 km/h 68 % 0 mm
16:11 -13.1 °C -16.1 °C 33924.3 hPa West 5.1 km/h 22.5 km/h 68 % 0 mm
16:16 -13.1 °C -16.1 °C 33924.3 hPa Calm   22 km/h 68 % 0 mm
16:21 -13.2 °C -16.1 °C 33924.3 hPa West 6.9 km/h 18.7 km/h 71 % 0 mm
16:26 -13.2 °C -16.1 °C 33924.3 hPa West 7.6 km/h 19.6 km/h 71 % 0 mm
16:31 -13.2 °C -16.1 °C 33924.3 hPa WSW 14 km/h 19.6 km/h 71 % 0 mm
16:36 -13.4 °C -16.1 °C 33924.3 hPa West 10.3 km/h 19.6 km/h 73 % 0 mm
16:41 -13.4 °C -16.1 °C 33924.3 hPa West 6.9 km/h 19.2 km/h 73 % 0 mm
16:46 -13.5 °C -16.1 °C 33924.3 hPa Calm   19.2 km/h 73 % 0 mm
16:51 -13.6 °C -16.1 °C 33924.3 hPa West 15 km/h 15 km/h 74 % 0 mm
16:56 -13.7 °C -16.1 °C 33924.3 hPa West 9.8 km/h 15.6 km/h 74 % 0 mm
17:02 -13.8 °C -16.1 °C 33924.3 hPa Calm   15.6 km/h 74 % 0 mm
17:07 -13.9 °C -16.1 °C 33924.3 hPa West 6.4 km/h 22 km/h 75 % 0 mm
17:12 -13.9 °C -16.1 °C 33924.3 hPa WSW 6.9 km/h 22 km/h 75 % 0 mm
17:17 -13.9 °C -16.1 °C 33924.3 hPa West 12.7 km/h 16.9 km/h 75 % 0 mm
17:22 -13.8 °C -16.1 °C 33924.3 hPa West 12.2 km/h 18.7 km/h 77 % 0 mm
17:27 -13.8 °C -16.1 °C 33924.3 hPa West 9.3 km/h 18.7 km/h 77 % 0 mm
17:32 -13.9 °C -16.1 °C 33924.3 hPa WSW 16.9 km/h 18.7 km/h 77 % 0 mm
17:37 -17.8 °C -16.1 °C 0 hPa Calm     0 % 0 mm
17:42 -17.8 °C -16.1 °C 33924.3 hPa Calm     0 % 0 mm
17:47 -17.8 °C -16.1 °C 33924.3 hPa WSW 12.7 km/h 14.5 km/h 0 % 0 mm
17:52 -14.1 °C -15.6 °C 33924.3 hPa West 14.5 km/h 16.9 km/h 80 % 0 mm
17:57 -14.1 °C -15.6 °C 33924.3 hPa WSW 16.9 km/h 20.3 km/h 81 % 0 mm
18:02 -14.1 °C -15.6 °C 33924.3 hPa WSW 15 km/h 20.3 km/h 82 % 0 mm
18:08 -14.2 °C -15.6 °C 33924.3 hPa WSW 12.7 km/h 16.9 km/h 83 % 0 mm
18:12 -14.2 °C -15.6 °C 33924.3 hPa WSW 14 km/h 16.9 km/h 83 % 0 mm
18:18 -14.2 °C -15.6 °C 33924.3 hPa WSW 16.3 km/h 20.3 km/h 83 % 0 mm
18:23 -14.2 °C -15.6 °C 33924.3 hPa WSW 14 km/h 20.3 km/h 83 % 0 mm
18:28 -14.2 °C -15.6 °C 33924.3 hPa WSW 15.6 km/h 16.9 km/h 83 % 0 mm
18:33 -14.2 °C -15.6 °C 33924.3 hPa WSW 16.3 km/h 16.9 km/h 83 % 0 mm
18:38 -14.1 °C -15 °C 33924.3 hPa WSW 15 km/h 18.7 km/h 85 % 0 mm
18:43 -14.1 °C -15 °C 33924.3 hPa WSW 12.7 km/h 20.3 km/h 86 % 0 mm
18:48 -14 °C -15 °C 33924.3 hPa WSW 22.5 km/h 22.5 km/h 86 % 0 mm
18:53 -13.9 °C -15 °C 33924.3 hPa West 15 km/h 22.5 km/h 87 % 0 mm
18:58 -13.9 °C -15 °C 33924.3 hPa West 16.3 km/h 22.5 km/h 87 % 0 mm
19:03 -13.9 °C -15 °C 33924.3 hPa WSW 20.3 km/h 22.5 km/h 86 % 0 mm
19:08 -13.9 °C -15 °C 33924.3 hPa WSW 16.3 km/h 25.4 km/h 86 % 0 mm
19:13 -13.9 °C -15 °C 33924.3 hPa West 18.7 km/h 25.4 km/h 86 % 0 mm
19:18 -13.9 °C -15 °C 33924.3 hPa WSW 20.3 km/h 25.4 km/h 86 % 0 mm
19:23 -13.9 °C -15 °C 33924.3 hPa WSW 19.6 km/h 23 km/h 86 % 0 mm
19:28 -13.9 °C -15 °C 33924.3 hPa WSW 16.3 km/h 22.5 km/h 86 % 0 mm
19:33 -14.1 °C -15 °C 33924.3 hPa WSW 16.9 km/h 22.5 km/h 87 % 0 mm
19:38 -14.2 °C -15 °C 33924.3 hPa WSW 16.3 km/h 25.4 km/h 87 % 0 mm
19:43 -14.2 °C -15 °C 33924.3 hPa WSW 16.9 km/h 25.4 km/h 87 % 0 mm
19:48 -14.3 °C -15 °C 33924.3 hPa WSW 16.3 km/h 26.7 km/h 88 % 0 mm
19:53 -14.2 °C -15 °C 33924.3 hPa West 26.2 km/h 28.5 km/h 89 % 0 mm
19:58 -14.2 °C -15 °C 33924.3 hPa WSW 15.6 km/h 28.5 km/h 90 % 0 mm
20:03 -14.2 °C -15 °C 33924.3 hPa WSW 11.1 km/h 28.5 km/h 90 % 0 mm
20:08 -14.2 °C -15 °C 33924.3 hPa West 15.6 km/h 22 km/h 90 % 0 mm
20:13 -14.2 °C -15 °C 33924.3 hPa West 33.6 km/h 33.6 km/h 91 % 0 mm
20:19 -14.2 °C -15 °C 33924.3 hPa WSW 18.7 km/h 33.6 km/h 91 % 0 mm
20:24 -14.2 °C -14.4 °C 33924.3 hPa West 19.6 km/h 31.4 km/h 91 % 0 mm
20:29 -14.2 °C -15 °C 33924.3 hPa SW 19.2 km/h 31.4 km/h 90 % 0 mm
20:34 -14.2 °C -15 °C 33924.3 hPa West 19.6 km/h 27.2 km/h 89 % 0 mm
20:39 -14.2 °C -15 °C 33924.3 hPa West 23 km/h 27.2 km/h 88 % 0 mm
20:44 -14.2 °C -15 °C 33958.2 hPa West 27.7 km/h 34.1 km/h 88 % 0 mm
20:49 -14.2 °C -15 °C 33958.2 hPa West 22 km/h 34.1 km/h 87 % 0 mm
20:54 -14.2 °C -15 °C 33958.2 hPa WNW 9.8 km/h 31.9 km/h 87 % 0 mm
20:59 -14.2 °C -15 °C 33958.2 hPa WSW 15.6 km/h 31.9 km/h 88 % 0 mm
21:04 -14.2 °C -15 °C 33958.2 hPa West 22 km/h 31.9 km/h 87 % 0 mm
21:09 -14.2 °C -15 °C 33958.2 hPa West 9.8 km/h 31.9 km/h 87 % 0 mm
21:14 -14.2 °C -15 °C 33958.2 hPa West 15.6 km/h 22.5 km/h 87 % 0 mm
21:19 -14.3 °C -15 °C 33958.2 hPa West 11.1 km/h 22 km/h 87 % 0 mm
21:24 -14.4 °C -15.6 °C 33958.2 hPa West 15.6 km/h 22 km/h 86 % 0 mm
21:29 -14.5 °C -15.6 °C 33958.2 hPa West 5.6 km/h 16.3 km/h 87 % 0 mm
21:34 -14.6 °C -15.6 °C 33958.2 hPa Calm   11.1 km/h 87 % 0 mm
21:39 -14.6 °C -15.6 °C 33958.2 hPa WNW 15 km/h 16.3 km/h 87 % 0 mm
21:45 -14.6 °C -15.6 °C 33958.2 hPa Calm   16.3 km/h 87 % 0 mm
21:50 -14.6 °C -15.6 °C 33958.2 hPa NNW 8.9 km/h 19.6 km/h 87 % 0 mm
21:55 -14.6 °C -15.6 °C 33958.2 hPa WNW 3.4 km/h 20.9 km/h 87 % 0 mm
22:00 -14.6 °C -15.6 °C 33958.2 hPa Calm   20.9 km/h 87 % 0 mm
22:05 -14.7 °C -15.6 °C 33958.2 hPa Calm   16.3 km/h 87 % 0 mm
22:10 -14.7 °C -15.6 °C 33958.2 hPa West 6.9 km/h 16.3 km/h 87 % 0 mm
22:15 -14.8 °C -15.6 °C 33958.2 hPa West 5.6 km/h 16.3 km/h 87 % 0 mm
22:20 -14.8 °C -15.6 °C 33958.2 hPa West 4.2 km/h 20.9 km/h 87 % 0 mm
22:25 -14.9 °C -16.1 °C 33958.2 hPa WNW 5.1 km/h 20.9 km/h 87 % 0 mm
22:30 -14.9 °C -16.1 °C 33958.2 hPa West 20.3 km/h 20.3 km/h 87 % 0 mm
22:35 -14.9 °C -16.1 °C 33958.2 hPa WNW 12.7 km/h 20.3 km/h 88 % 0 mm
22:40 -15 °C -16.1 °C 33958.2 hPa West 15 km/h 19.6 km/h 88 % 0 mm
22:45 -15.1 °C -16.1 °C 33958.2 hPa West 10.3 km/h 20.3 km/h 88 % 0 mm
22:51 -15.1 °C -16.1 °C 33958.2 hPa WSW 11.1 km/h 20.3 km/h 89 % 0 mm
22:56 -15.1 °C -16.1 °C 33958.2 hPa West 7.6 km/h 16.9 km/h 89 % 0 mm
23:01 -15.1 °C -16.1 °C 33992.1 hPa West 6.4 km/h 20.9 km/h 89 % 0 mm
23:06 -15.1 °C -16.1 °C 33992.1 hPa West 19.6 km/h 23.8 km/h 90 % 0 mm
23:11 -15.2 °C -16.1 °C 33992.1 hPa West 14 km/h 23.8 km/h 90 % 0 mm
23:16 -15.2 °C -16.1 °C 33992.1 hPa WSW 15 km/h 19.2 km/h 90 % 0 mm
23:21 -15.2 °C -16.1 °C 33992.1 hPa West 20.9 km/h 20.9 km/h 90 % 0 mm
23:26 -15.3 °C -16.1 °C 33992.1 hPa WSW 17.9 km/h 20.9 km/h 90 % 0 mm
23:31 -15.3 °C -16.1 °C 34029.3 hPa West 15.6 km/h 20.9 km/h 91 % 0 mm
23:36 -15.3 °C -16.1 °C 34029.3 hPa WSW 18.7 km/h 22 km/h 92 % 0 mm
23:41 -15.3 °C -16.1 °C 34029.3 hPa West 12.7 km/h 22 km/h 92 % 0 mm
23:46 -15.2 °C -15.6 °C 34029.3 hPa West 15 km/h 20.9 km/h 93 % 0 mm
23:51 -15.3 °C -15.6 °C 34029.3 hPa West 15.6 km/h 20.9 km/h 93 % 0 mm
23:56 -15.3 °C -15.6 °C 34029.3 hPa West 16.3 km/h 22 km/h 93 % 0 mm
Le Gheer Warneton
Courtoisie de Weather Underground - 2.25 mb

Mise a jour : 25/02/2018 18:05:12
Généré par Cumulus 1.9.4 (1099)